Temperature
21 21 21 21 18 18 19 20 20 20 20 20 20 19 18 18 18 17 17 17 17 17 17 17 17 17 17 17 17 17 17 17 17 17 17 17 17 17 17 17 17 17 17 17 17 18 18 18 18
21 21 21 20 18 18 19 20 20 21 21 21 20 20 19 18 17 17 17 17 17 17 17 17 17 17 17 17 17 17 17 17 17 17 17 17 17 17 17 17 17 17 17 17 17 17 17 17 17
21 21 21 18 18 19 20 20 20 21 22 21 20 19 18 18 17 17 17 17 17 17 17 17 17 17 17 17 17 17 17 17 17 17 17 17 17 17 17 17 17 17 17 17 17 17 17 17 17
21 21 21 18 19 20 20 20 21 21 21 21 20 18 18 18 18 17 17 17 17 17 17 17 17 17 17 17 17 17 16 17 17 17 17 17 17 17 17 17 17 17 17 17 17 17 17 17 17
22 21 18 18 20 20 20 21 21 21 21 20 19 18 17 18 18 17 17 17 17 17 17 17 17 17 17 17 17 17 16 16 16 16 16 17 17 17 17 17 17 17 17 17 17 17 17 17 17
22 19 18 18 20 20 20 21 21 20 20 19 19 18 17 17 17 17 17 17 17 17 17 17 17 17 17 17 17 16 16 16 16 16 16 16 16 16 16 16 16 16 16 16 16 16 16 16 16
21 18 18 19 19 20 21 22 21 20 20 20 19 17 17 17 17 17 17 17 17 17 17 17 17 17 17 17 16 16 16 16 16 16 16 16 16 16 16 16 16 16 16 16 16 16 16 16 16
22 18 19 19 19 20 21 22 21 21 20 20 19 18 17 17 17 17 17 17 17 17 17 17 17 17 17 17 17 17 16 16 16 16 16 16 16 16 16 16 16 16 16 16 16 16 16 16 16
22 17 18 19 20 20 21 21 21 21 20 19 19 19 18 18 17 17 17 17 17 17 17 17 17 17 16 16 16 16 16 16 16 16 16 16 16 16 16 16 16 16 16 16 16 16 16 16 16
21 18 20 20 20 20 21 21 21 20 19 18 18 18 18 18 17 17 17 17 17 17 17 17 17 17 17 16 16 16 16 16 16 16 16 16 16 16 16 16 16 16 16 16 16 16 16 16 16
21 19 20 21 22 22 21 21 21 20 18 18 18 18 18 17 17 17 17 17 17 17 17 17 17 17 16 16 16 16 16 16 16 16 16 16 16 16 16 16 16 16 16 16 16 16 16 16 16
21 21 22 22 22 22 21 21 20 20 19 20 19 19 18 18 18 18 18 17 17 17 17 17 17 17 16 16 16 16 16 16 16 16 16 16 16 16 16 16 16 16 16 16 16 16 16 15 15
21 21 22 22 22 22 21 20 20 19 20 19 19 18 18 18 18 18 18 17 17 17 17 17 17 17 16 16 16 16 16 16 16 16 16 16 16 16 16 16 15 15 16 16 16 16 15 15 15
22 22 22 22 22 21 21 20 20 19 19 19 19 18 18 18 18 18 18 18 17 17 17 17 17 17 16 16 16 16 16 16 16 16 16 16 16 16 15 15 15 15 15 15 15 15 15 15 15
22 21 21 21 21 21 21 19 19 19 19 19 18 18 18 18 18 18 18 18 18 17 17 17 17 16 16 16 16 16 16 16 16 16 16 16 16 15 16 15 15 15 15 15 15 15 15 15 15
21 20 19 20 21 21 20 19 19 20 19 19 18 18 18 18 18 18 18 18 18 17 17 17 17 16 16 16 16 16 16 16 16 16 16 16 15 15 15 15 15 15 15 15 15 15 15 15 15
20 19 19 20 21 21 20 19 19 20 19 19 19 19 18 18 18 18 18 18 18 17 17 17 17 17 16 16 16 16 16 16 16 15 15 16 15 15 15 15 15 15 15 15 15 15 15 15 15
20 20 20 20 21 21 20 19 19 20 19 19 19 19 19 19 18 18 18 18 18 17 17 17 17 16 16 16 16 16 16 16 15 15 15 15 15 15 15 15 15 15 15 15 15 15 15 15 15
21 20 20 20 21 21 20 19 19 19 19 18 19 19 19 19 19 18 18 18 18 17 17 17 17 16 16 16 16 16 16 16 15 15 15 15 15 15 15 15 15 15 15 15 15 15 15 15 15
21 20 20 21 21 21 20 19 19 19 19 19 19 19 19 19 18 18 18 18 18 17 17 17 17 16 16 16 16 16 16 16 15 15 15 15 15 15 15 15 15 15 15 15 15 15 15 15 15
21 21 21 21 21 20 20 19 19 19 20 20 20 19 19 19 19 19 18 18 18 17 17 17 17 16 16 16 16 16 16 16 15 15 15 15 15 15 15 15 15 15 15 15 15 15 15 15 15
20 22 22 21 20 18 19 18 18 18 18 19 19 19 19 19 19 19 18 18 18 17 17 17 17 16 16 16 16 16 16 16 15 15 15 15 15 15 15 15 15 15 15 15 15 15 15 15 15
21 22 22 21 20 19 19 18 18 18 18 18 18 19 19 19 19 19 19 18 18 17 17 17 17 17 16 16 16 16 16 15 15 15 15 15 15 15 15 15 15 15 15 15 15 15 15 15 15
22 21 20 18 18 18 19 18 18 17 19 19 18 19 19 19 19 19 19 18 18 17 17 17 17 17 16 16 16 16 16 15 15 15 15 15 15 15 15 15 15 15 15 15 15 15 15 15 15
20 18 17 18 17 18 19 18 18 19 19 19 19 19 19 19 19 19 18 18 18 18 17 17 17 17 16 16 16 16 16 16 15 15 15 15 15 15 15 15 15 15 15 15 15 15 15 15 15
20 18 18 18 18 18 19 19 19 20 20 20 20 20 19 19 19 19 19 18 18 18 17 17 17 17 16 16 16 16 16 16 16 15 15 15 15 15 15 15 15 15 15 15 15 15 15 15 15
20 18 18 17 18 18 18 19 19 20 19 19 19 19 19 19 19 19 19 18 18 18 17 17 17 17 17 16 16 16 16 16 16 16 15 15 15 15 15 15 15 15 15 15 15 15 15 15 15
20 19 17 17 18 17 18 18 18 18 18 18 18 18 19 19 19 19 19 18 18 18 18 17 17 17 17 16 16 16 16 16 16 16 15 15 15 15 15 15 15 15 15 15 15 15 15 15 15
20 19 18 16 16 17 17 17 19 18 18 18 18 18 19 19 19 19 19 18 18 18 18 17 17 17 17 17 16 16 16 16 16 16 16 15 15 15 15 15 15 15 15 15 15 15 15 14 14
20 19 18 17 17 16 16 17 19 18 18 18 18 19 19 19 19 19 18 18 18 18 17 17 17 17 17 17 17 16 16 16 16 16 16 15 15 15 15 15 15 15 15 15 15 15 14 14 14
Wind_Speed
6 4 2 3 5 5 4 2 1 2 3 4 7 9 8 6 5 5 3 6 6 4 4 6 7 8 8 9 9 9 9 10 10 11 11 11 11 11 11 10 11 11 11 11 11 11 11 10 10
3 1 3 5 5 4 2 1 4 4 4 5 7 8 7 6 4 5 3 6 7 6 5 6 8 8 8 8 9 9 10 10 11 11 11 11 11 11 10 10 10 11 11 10 10 10 10 10 10
2 1 4 4 4 3 3 1 3 4 5 4 5 6 5 4 3 3 4 7 7 6 5 6 8 8 8 8 8 9 9 10 10 11 11 10 10 10 10 10 10 9 9 9 9 9 9 9 9
2 4 5 6 6 2 3 3 3 5 6 6 6 6 4 3 3 4 6 8 7 5 6 6 7 7 7 7 8 8 9 9 10 10 10 10 10 10 10 10 10 9 9 9 8 8 8 9 9
3 4 6 5 4 2 3 3 5 6 4 4 6 6 3 3 6 8 7 8 7 5 5 6 7 7 6 7 7 8 8 9 9 10 10 9 10 9 9 9 9 9 9 8 8 8 8 9 10
4 5 5 4 3 3 3 4 7 8 6 5 6 5 2 2 5 6 7 7 6 5 4 5 7 6 6 7 7 8 8 9 9 9 9 9 9 9 9 9 8 8 8 7 8 8 8 9 10
4 4 4 3 3 3 2 4 5 6 5 3 5 5 3 2 3 5 6 6 5 5 5 4 4 5 6 6 7 8 8 8 8 8 8 8 8 9 8 7 7 7 7 7 7 7 8 9 10
5 5 4 2 3 1 1 3 5 6 4 4 4 6 4 4 4 5 5 5 4 3 3 3 3 3 4 5 6 7 7 7 7 7 7 8 8 8 7 6 6 6 6 7 7 7 8 9 10
4 5 3 1 3 1 2 5 4 5 6 4 4 3 5 8 7 6 5 3 2 2 2 2 2 3 3 3 5 6 5 6 6 6 7 7 5 5 5 5 6 6 6 6 7 7 9 10 11
5 4 2 2 4 3 3 5 4 4 6 4 5 6 8 8 7 7 5 3 2 2 1 2 3 3 3 3 4 4 4 5 5 5 5 4 4 4 4 4 5 6 6 6 6 7 8 9 8
4 5 3 2 3 4 4 4 4 6 3 4 7 8 8 7 6 6 5 4 3 2 2 3 3 3 3 3 4 3 3 4 4 4 4 4 4 4 4 3 3 4 5 5 6 6 7 7 8
4 3 4 3 3 4 4 4 4 4 4 7 9 10 8 8 7 6 6 4 3 3 3 3 3 3 3 4 3 3 3 3 3 3 5 5 3 2 2 1 1 3 4 5 5 6 7 9 9
3 2 3 4 4 4 5 5 5 3 5 8 9 9 8 7 6 5 5 4 3 4 3 3 4 4 3 3 2 3 2 3 3 4 5 5 3 2 1 1 2 3 4 5 5 5 7 7 8
3 3 2 3 3 3 5 3 4 3 7 9 9 8 7 6 6 5 4 4 4 4 3 4 5 4 5 4 3 2 3 3 4 4 4 5 4 3 2 2 3 4 5 6 6 6 5 5 6
3 3 1 1 2 3 5 3 3 7 8 8 8 7 6 5 5 6 6 6 5 4 4 4 5 5 5 4 4 4 4 4 4 3 4 5 5 5 4 3 3 4 7 8 7 7 6 5 5
2 3 0 3 2 3 6 2 3 7 9 8 7 6 6 5 5 5 6 6 5 5 5 4 5 5 5 4 4 4 4 4 3 4 5 5 6 7 6 4 3 5 7 6 4 4 5 5 4
2 1 2 2 2 3 5 4 4 7 9 8 7 7 6 5 4 4 5 6 6 6 5 4 4 5 4 4 4 4 4 4 3 4 4 5 6 8 7 4 4 6 6 4 4 4 4 4 4
2 2 2 3 2 3 4 4 4 6 8 8 7 7 6 7 6 5 5 5 5 5 5 4 4 4 5 4 4 3 3 3 3 4 4 5 6 8 7 5 5 6 4 4 4 4 4 3 3
3 2 2 3 3 3 4 4 5 6 6 7 7 7 8 8 6 5 5 5 5 4 5 4 4 3 4 3 3 2 1 1 2 2 4 6 6 7 6 5 4 4 4 4 4 4 4 3 3
2 2 0 1 2 2 2 3 4 6 8 9 10 9 9 7 5 5 5 5 5 5 5 5 4 4 4 3 2 2 2 1 1 1 3 5 6 6 6 5 3 3 4 4 4 3 3 1 2
1 3 3 2 1 1 2 3 2 3 3 5 8 8 9 10 10 8 7 6 7 6 6 6 5 5 4 4 3 3 3 3 3 2 2 2 4 5 5 5 4 4 4 3 3 3 4 2 1
2 3 3 3 3 2 2 1 5 4 3 5 7 7 8 9 9 8 8 7 8 7 5 5 5 5 4 5 5 4 3 2 1 1 0 1 3 3 4 5 5 4 3 3 2 3 2 3 2
4 2 1 2 2 1 0 2 6 2 4 6 7 8 9 10 11 10 10 9 7 6 6 6 5 5 4 4 5 5 3 2 1 1 2 2 2 2 4 4 5 4 3 3 2 3 3 2 3
2 4 5 5 4 1 4 4 4 4 6 5 6 7 7 8 9 8 7 7 6 6 5 6 6 5 4 5 5 5 5 4 3 2 1 1 1 2 3 4 4 4 3 3 3 3 3 3 3
4 5 3 4 3 4 2 3 4 5 5 7 9 8 7 8 8 8 8 8 7 7 7 6 6 5 5 5 5 5 6 5 4 3 3 2 1 1 1 3 3 3 3 3 4 3 3 3 3
2 6 5 3 3 3 1 3 4 3 2 4 6 7 7 7 8 9 9 9 8 8 7 6 6 5 5 5 4 4 5 4 3 4 4 4 3 3 3 3 3 3 4 4 4 3 3 3 3
3 3 6 5 1 1 2 1 4 5 4 3 5 5 7 7 7 8 8 8 8 7 7 7 7 6 5 5 4 4 4 4 4 4 4 3 3 3 3 4 3 3 4 4 4 3 3 3 3
4 4 5 3 2 1 2 2 3 3 2 2 4 5 6 6 6 6 7 8 7 7 6 6 6 6 6 6 5 4 4 4 4 4 4 4 3 3 4 4 4 4 3 4 3 3 3 3 2
2 2 3 3 4 4 2 4 4 7 6 6 5 6 7 7 7 7 6 7 6 6 5 5 5 5 5 5 5 4 3 3 3 3 4 4 4 4 5 5 4 4 4 4 4 3 3 3 2
5 5 5 4 2 3 3 4 4 5 5 5 4 5 6 7 6 6 6 5 5 5 5 5 5 5 5 5 5 4 3 3 3 3 3 4 4 4 4 4 4 4 4 4 5 4 3 3 2
Wind_Direction
313 323 77 55 54 58 67 24 82 64 50 47 66 80 83 65 80 123 163 134 133 130 121 113 103 97 94 90 86 83 86 88 88 92 93 92 89 87 90 90 86 85 86 88 87 87 87 85 83
327 351 66 55 73 71 50 26 66 71 127 116 77 77 77 73 81 109 127 139 134 130 121 114 106 99 94 92 90 89 88 91 93 95 94 92 90 88 89 91 90 88 86 87 87 85 84 83 81
322 23 73 63 72 106 120 139 109 75 87 84 72 59 68 88 98 126 155 143 129 123 121 119 111 101 95 94 93 96 94 94 97 98 96 94 92 92 91 91 89 89 91 91 89 87 84 82 80
55 46 57 72 77 85 134 148 119 94 66 56 87 70 59 50 111 136 139 133 128 129 128 121 113 108 103 100 102 102 99 98 99 99 97 96 95 94 93 92 92 92 95 96 95 90 86 85 82
69 70 62 69 70 63 85 103 96 80 74 67 85 92 62 32 100 123 127 126 132 136 136 127 118 112 108 109 112 109 106 103 102 101 100 100 98 95 94 92 92 94 95 94 94 93 86 81 81
54 67 80 82 80 80 75 90 92 89 98 92 87 99 100 113 113 126 126 130 138 143 140 129 124 116 108 113 114 110 110 112 108 104 101 102 102 100 97 96 93 94 97 98 95 92 87 82 80
94 83 101 117 101 81 91 99 97 101 94 100 108 101 126 144 138 128 119 123 133 138 139 135 130 122 115 115 119 115 114 118 117 111 107 105 103 103 101 99 101 100 100 97 93 91 89 84 82
120 95 72 76 98 80 53 86 102 101 96 92 95 124 164 186 151 119 108 107 122 129 139 146 153 140 125 116 120 121 119 121 120 116 114 107 102 102 101 105 107 108 105 99 95 92 89 86 85
86 77 82 120 132 132 96 88 72 75 84 60 61 125 152 143 127 112 101 84 104 125 136 142 152 153 147 131 123 122 116 113 113 116 115 108 95 98 96 107 111 109 102 100 94 88 88 84 83
81 100 142 160 143 135 110 106 114 86 75 67 67 85 117 128 126 130 140 143 140 158 150 129 135 145 150 130 109 110 104 100 102 110 111 111 104 106 104 100 104 96 86 86 86 86 85 76 74
107 141 145 103 119 115 101 93 91 117 105 149 142 138 130 131 138 146 157 164 169 167 135 124 132 128 119 104 108 100 99 99 94 101 112 115 108 97 93 86 71 63 66 64 70 72 78 82 85
102 124 136 120 115 108 114 109 85 103 159 157 148 143 140 145 160 166 167 172 159 122 110 128 129 113 110 109 107 113 108 97 85 103 106 109 112 113 116 101 62 61 73 80 79 81 84 86 90
102 143 114 121 110 111 105 108 114 108 133 137 137 137 147 152 157 167 164 163 139 123 111 115 114 109 103 95 93 99 98 98 96 96 103 109 114 110 112 110 89 81 92 97 94 91 88 88 90
160 129 108 130 132 125 118 116 112 156 146 139 144 152 160 163 160 161 161 153 145 130 117 117 108 106 102 94 88 91 97 98 91 89 92 100 108 107 103 94 90 87 93 94 93 92 89 88 91
132 96 25 249 177 164 113 60 162 169 149 148 156 162 162 169 165 167 171 161 156 147 127 121 119 104 100 99 93 86 85 87 79 79 88 96 99 103 103 93 87 94 98 96 89 85 85 87 87
84 86 256 272 178 163 118 187 229 169 153 160 166 169 166 179 178 175 162 156 152 142 134 131 124 114 104 99 95 88 80 78 74 79 88 95 97 97 95 88 84 93 93 92 89 83 82 81 86
39 157 204 263 212 165 141 197 216 178 166 173 177 179 175 180 185 179 159 157 156 150 145 137 124 120 110 102 91 86 82 71 68 76 83 91 97 102 105 100 95 96 89 83 97 85 93 94 91
226 201 201 201 216 149 158 200 202 188 175 181 184 182 183 187 199 185 170 160 157 151 146 139 129 124 111 94 81 68 59 52 58 70 81 94 97 101 107 109 100 97 90 79 85 91 80 92 95
200 197 236 218 195 163 186 200 208 200 182 183 186 184 186 194 199 180 169 153 145 141 143 144 132 130 118 102 98 97 85 52 44 58 86 98 100 98 102 106 101 98 99 103 105 101 84 70 82
178 169 268 273 216 161 194 236 221 202 192 183 185 188 186 184 177 174 171 156 154 154 151 146 147 143 136 128 132 142 139 108 60 42 70 95 102 103 112 111 110 108 104 97 96 102 95 77 84
223 184 192 197 9 27 94 338 267 240 202 185 189 186 183 181 180 178 172 164 156 160 166 163 164 154 145 128 104 82 64 51 39 33 26 43 103 112 114 115 117 118 117 125 127 130 126 123 49
241 240 188 158 117 260 155 241 276 243 226 204 197 189 189 187 179 176 172 167 169 172 168 158 159 151 145 133 129 127 126 132 185 192 103 35 89 110 116 115 117 120 123 133 143 135 132 125 114
212 246 185 159 145 323 343 149 284 244 222 220 203 195 192 187 179 176 177 175 173 168 165 159 153 151 152 145 141 135 136 155 152 114 88 63 46 89 114 116 114 115 125 135 122 111 110 118 131
166 49 33 49 71 306 235 162 277 231 215 204 195 189 184 180 176 174 173 165 166 164 160 158 155 157 158 153 150 154 160 160 139 123 121 86 49 51 93 117 119 121 129 133 124 113 110 107 110
85 83 39 13 11 259 230 149 255 252 207 183 181 180 175 173 169 169 169 171 170 167 167 166 162 165 169 166 171 175 175 173 172 176 172 162 136 129 155 126 124 124 130 127 119 110 101 108 112
172 141 154 183 215 273 335 193 264 289 179 161 160 162 162 170 174 177 177 175 174 173 172 173 172 175 176 174 182 183 177 176 186 187 180 179 182 190 177 144 133 125 124 115 109 108 101 102 105
150 178 171 145 195 236 288 316 339 14 63 100 135 145 166 175 176 177 178 176 173 172 176 179 177 175 178 176 181 185 181 179 188 191 183 184 192 190 163 144 136 126 119 111 111 101 100 104 102
160 149 94 118 155 236 295 233 229 225 186 166 162 172 180 177 173 173 174 176 178 178 178 176 174 174 177 174 185 188 187 184 180 172 176 182 183 163 148 149 150 141 129 121 114 109 109 103 99
138 121 123 138 156 156 226 269 237 199 192 186 191 184 175 172 171 174 176 174 171 169 169 175 179 170 172 179 183 175 177 177 167 170 182 179 169 164 164 165 162 156 152 141 129 125 122 116 94
162 168 149 154 219 166 168 262 279 195 188 174 176 174 171 170 167 166 164 158 160 165 172 181 183 178 180 176 166 163 163 160 161 168 177 167 163 169 169 163 162 162 159 156 152 155 149 146 140
Height
1513 1512 1512 1513 1516 1527 1531 1526 1522 1520 1520 1520 1519 1520 1523 1527 1530 1537 1534 1533 1533 1533 1532 1532 1531 1530 1529 1528 1527 1527 1526 1526 1525 1525 1525 1524 1524 1524 1524 1525 1525 1525 1525 1525 1525 1526 1526 1526 1527
1513 1513 1514 1514 1524 1538 1534 1525 1523 1520 1521 1521 1521 1523 1525 1528 1530 1532 1532 1533 1533 1533 1533 1532 1531 1530 1530 1529 1528 1527 1527 1526 1526 1526 1526 1526 1526 1525 1525 1525 1526 1526 1526 1526 1526 1527 1527 1527 1528
1513 1513 1515 1518 1528 1535 1532 1525 1522 1520 1521 1521 1523 1525 1528 1531 1531 1532 1533 1533 1534 1533 1533 1533 1532 1531 1530 1529 1529 1528 1528 1528 1527 1527 1527 1527 1527 1527 1526 1526 1526 1526 1527 1527 1527 1528 1528 1528 1528
1514 1515 1516 1524 1530 1527 1525 1523 1521 1521 1522 1523 1524 1528 1530 1532 1532 1533 1533 1534 1534 1534 1534 1533 1532 1532 1531 1530 1530 1529 1529 1529 1528 1528 1528 1528 1528 1528 1528 1527 1527 1527 1527 1528 1528 1529 1529 1529 1529
1514 1515 1523 1531 1529 1525 1522 1522 1521 1522 1523 1525 1525 1530 1532 1533 1533 1533 1534 1535 1535 1534 1534 1534 1533 1532 1532 1531 1531 1531 1530 1530 1530 1529 1529 1529 1529 1529 1529 1529 1529 1528 1528 1529 1529 1530 1530 1530 1530
1515 1517 1531 1537 1530 1525 1523 1522 1522 1524 1526 1527 1527 1530 1534 1534 1534 1535 1535 1535 1535 1535 1535 1535 1534 1534 1533 1532 1532 1532 1532 1531 1531 1531 1531 1530 1530 1530 1530 1530 1530 1530 1530 1530 1530 1531 1531 1531 1531
1517 1523 1531 1533 1531 1527 1524 1523 1524 1525 1526 1528 1528 1531 1534 1535 1535 1535 1536 1536 1536 1536 1535 1535 1535 1535 1534 1534 1533 1533 1533 1533 1532 1532 1532 1532 1532 1532 1531 1531 1531 1531 1531 1531 1531 1532 1532 1532 1533
1517 1523 1530 1532 1531 1529 1525 1524 1525 1526 1528 1529 1529 1531 1533 1535 1535 1536 1537 1537 1537 1537 1536 1536 1536 1536 1536 1535 1535 1535 1535 1534 1534 1534 1534 1533 1533 1533 1533 1533 1533 1533 1532 1533 1533 1533 1533 1534 1534
1518 1528 1535 1531 1530 1528 1525 1525 1527 1527 1528 1529 1530 1531 1532 1534 1535 1536 1537 1538 1538 1537 1537 1537 1537 1537 1537 1536 1536 1536 1536 1536 1536 1535 1535 1535 1535 1535 1535 1534 1534 1534 1534 1534 1534 1534 1535 1535 1535
1519 1531 1529 1525 1525 1525 1525 1525 1527 1529 1529 1531 1531 1532 1533 1534 1536 1536 1537 1538 1538 1538 1538 1538 1538 1538 1538 1537 1537 1537 1537 1537 1537 1537 1536 1536 1536 1536 1536 1536 1536 1536 1536 1536 1535 1536 1536 1536 1536
1520 1526 1524 1524 1523 1524 1525 1526 1527 1528 1531 1531 1531 1532 1534 1535 1536 1537 1538 1538 1538 1538 1538 1539 1539 1539 1539 1539 1539 1538 1538 1538 1538 1538 1538 1537 1537 1537 1537 1537 1538 1537 1537 1537 1537 1537 1537 1537 1537
1522 1523 1523 1524 1524 1524 1525 1526 1528 1528 1530 1530 1531 1532 1534 1535 1536 1537 1538 1538 1539 1539 1539 1539 1540 1540 1540 1540 1540 1540 1540 1539 1539 1539 1539 1539 1538 1538 1539 1539 1539 1539 1538 1538 1538 1538 1538 1538 1538
1523 1523 1523 1524 1524 1525 1526 1527 1528 1529 1530 1531 1532 1533 1534 1535 1536 1537 1538 1539 1539 1539 1540 1540 1540 1540 1540 1540 1540 1540 1540 1540 1540 1540 1540 1540 1539 1540 1540 1540 1540 1540 1540 1540 1540 1540 1540 1540 1540
1523 1523 1524 1525 1525 1526 1527 1528 1529 1531 1531 1532 1533 1534 1535 1536 1536 1537 1538 1539 1539 1540 1540 1540 1541 1541 1541 1541 1541 1541 1541 1541 1541 1541 1540 1540 1541 1541 1541 1541 1541 1541 1541 1541 1541 1541 1541 1541 1541
1523 1525 1526 1525 1525 1526 1528 1531 1529 1530 1531 1532 1533 1534 1535 1536 1536 1537 1538 1538 1539 1540 1541 1541 1541 1542 1542 1542 1542 1542 1542 1542 1542 1542 1542 1541 1542 1542 1542 1542 1542 1542 1542 1542 1542 1542 1542 1542 1543
1524 1529 1534 1527 1525 1526 1530 1537 1530 1530 1531 1532 1533 1534 1535 1536 1536 1537 1538 1538 1539 1540 1541 1541 1542 1542 1542 1542 1543 1543 1543 1543 1543 1542 1542 1542 1542 1542 1542 1543 1543 1543 1543 1543 1543 1543 1543 1544 1544
1530 1536 1536 1530 1524 1525 1529 1533 1529 1529 1530 1531 1532 1533 1534 1535 1536 1537 1538 1539 1539 1540 1541 1542 1542 1543 1543 1543 1543 1544 1544 1544 1544 1543 1543 1543 1543 1543 1543 1544 1544 1544 1544 1544 1544 1545 1545 1545 1545
1535 1534 1533 1532 1525 1525 1529 1530 1527 1528 1529 1530 1531 1532 1533 1534 1535 1536 1537 1538 1540 1540 1541 1542 1543 1543 1544 1544 1544 1545 1545 1544 1544 1544 1544 1544 1544 1544 1544 1544 1544 1545 1545 1545 1545 1546 1546 1547 1547
1526 1530 1531 1528 1523 1526 1529 1529 1527 1526 1528 1529 1530 1530 1531 1533 1535 1536 1537 1538 1539 1540 1541 1541 1542 1543 1544 1544 1545 1545 1545 1545 1545 1545 1545 1545 1545 1545 1545 1545 1545 1546 1546 1546 1547 1547 1547 1548 1548
1525 1529 1530 1526 1522 1525 1528 1528 1525 1525 1525 1526 1527 1528 1530 1531 1533 1535 1536 1537 1538 1539 1540 1541 1542 1543 1544 1544 1545 1545 1546 1546 1546 1546 1546 1546 1546 1546 1546 1546 1546 1547 1547 1547 1548 1548 1548 1549 1549
1525 1528 1528 1528 1525 1525 1529 1534 1529 1525 1524 1525 1525 1526 1528 1529 1531 1533 1535 1536 1537 1539 1540 1541 1542 1543 1544 1545 1545 1545 1546 1546 1546 1547 1547 1547 1547 1547 1547 1547 1547 1548 1548 1548 1548 1549 1549 1549 1550
1528 1520 1521 1524 1532 1538 1534 1548 1534 1527 1525 1524 1524 1525 1526 1528 1530 1531 1533 1535 1536 1538 1539 1540 1541 1543 1543 1544 1544 1545 1545 1546 1546 1547 1547 1547 1548 1548 1548 1548 1548 1548 1549 1549 1549 1549 1550 1550 1550
1521 1517 1519 1523 1530 1537 1536 1544 1539 1528 1528 1524 1523 1523 1524 1526 1528 1530 1532 1534 1536 1537 1539 1540 1541 1542 1543 1544 1544 1545 1545 1546 1546 1547 1547 1547 1548 1548 1548 1548 1549 1549 1549 1550 1550 1550 1550 1550 1550
1516 1520 1524 1529 1536 1547 1537 1543 1541 1531 1524 1521 1521 1522 1523 1525 1527 1529 1531 1533 1535 1537 1538 1539 1540 1541 1542 1543 1544 1544 1545 1545 1546 1547 1547 1547 1548 1548 1549 1549 1549 1550 1550 1550 1550 1550 1550 1551 1551
1519 1534 1548 1549 1554 1550 1532 1538 1536 1520 1516 1517 1518 1520 1522 1524 1526 1528 1530 1532 1534 1535 1537 1538 1540 1541 1541 1542 1543 1543 1544 1545 1546 1546 1547 1548 1548 1548 1549 1549 1550 1550 1550 1551 1551 1551 1551 1551 1551
1521 1530 1548 1556 1556 1548 1534 1538 1528 1516 1514 1515 1516 1519 1521 1523 1525 1527 1529 1531 1533 1534 1536 1537 1538 1539 1541 1541 1542 1543 1544 1545 1545 1546 1547 1548 1548 1549 1549 1549 1550 1550 1550 1551 1551 1551 1551 1551 1552
1522 1528 1528 1541 1543 1548 1542 1532 1523 1516 1516 1516 1518 1519 1520 1522 1524 1526 1528 1530 1532 1533 1535 1536 1537 1538 1540 1541 1541 1542 1543 1544 1545 1546 1547 1547 1548 1549 1549 1549 1550 1550 1550 1551 1551 1551 1551 1552 1552
1516 1521 1533 1541 1550 1555 1545 1539 1536 1525 1521 1519 1519 1519 1519 1521 1523 1525 1527 1529 1531 1533 1534 1536 1537 1538 1539 1540 1541 1542 1542 1543 1544 1545 1546 1547 1547 1548 1549 1549 1549 1550 1550 1551 1551 1552 1552 1552 1552
1519 1523 1529 1538 1541 1552 1554 1546 1521 1520 1518 1518 1518 1518 1519 1520 1522 1524 1526 1528 1530 1532 1534 1535 1536 1537 1538 1539 1540 1541 1542 1543 1544 1545 1546 1546 1547 1547 1548 1549 1549 1549 1550 1550 1551 1551 1552 1552 1552
1514 1519 1526 1538 1541 1542 1548 1544 1515 1516 1515 1516 1517 1517 1518 1520 1522 1524 1526 1527 1529 1531 1532 1533 1535 1536 1537 1538 1539 1540 1541 1542 1543 1544 1544 1545 1546 1547 1547 1548 1548 1548 1549 1549 1550 1550 1551 1552 1552